SIA12 WSSS-RJAA

Flight info

Callsign SIA12
Flight time 6h 12m
Altitude 35000
Route TOMAN5B TOMAN L625 LUSMO N884 LAXOR/N0495F360 N884 LULBU/N0499F350 N884 LUBAN/N0455F210 TR23 CAB/N0498F350 R597 VIGOR/N0492F370 A590 BUBDO Y83 MOE Y81 RUTAS
Aircraft B77W/H-SDE1E2E3FGHIJ2J3J4J5M1RWXY/LB1D1

Departure

Time 2026-05-06 05:38
Airport Singapore Changi Airport (WSSS)

Arrival

Time 2026-05-06 11:50
Airport Narita International Airport (RJAA)
Time Latitude Longitude Altitude Speed Heading
2026-05-06 05:07 1.35095 103.98320 37 ft 0 kts 112°
2026-05-06 05:26 1.35098 103.98314 37 ft 4 kts 111°
2026-05-06 05:26 1.35106 103.98288 37 ft 4 kts 102°
2026-05-06 05:26 1.35111 103.98266 35 ft 4 kts 113°
2026-05-06 05:27 1.35122 103.98249 35 ft 4 kts 147°
2026-05-06 05:27 1.35138 103.98243 34 ft 4 kts 189°
2026-05-06 05:27 1.35163 103.98250 35 ft 4 kts 206°
2026-05-06 05:27 1.35187 103.98262 35 ft 4 kts 205°
2026-05-06 05:28 1.35195 103.98266 35 ft 0 kts 203°
2026-05-06 05:30 1.35167 103.98254 35 ft 9 kts 203°
2026-05-06 05:30 1.35122 103.98206 38 ft 10 kts 240°
2026-05-06 05:30 1.35092 103.98147 38 ft 10 kts 245°
2026-05-06 05:30 1.35044 103.98106 38 ft 10 kts 204°
2026-05-06 05:31 1.34982 103.98079 38 ft 10 kts 202°
2026-05-06 05:31 1.34900 103.98044 37 ft 14 kts 203°
2026-05-06 05:31 1.34808 103.98027 37 ft 14 kts 155°
2026-05-06 05:31 1.34759 103.98105 37 ft 14 kts 111°
2026-05-06 05:32 1.34719 103.98199 39 ft 17 kts 112°
2026-05-06 05:32 1.34669 103.98317 49 ft 20 kts 112°
2026-05-06 05:32 1.34612 103.98451 53 ft 21 kts 113°
2026-05-06 05:32 1.34545 103.98611 37 ft 28 kts 114°
2026-05-06 05:33 1.34467 103.98788 38 ft 28 kts 112°
2026-05-06 05:33 1.34419 103.98939 38 ft 13 kts 78°
2026-05-06 05:33 1.34472 103.98975 38 ft 10 kts 20°
2026-05-06 05:33 1.34536 103.99000 38 ft 12 kts 22°
2026-05-06 05:34 1.34646 103.99046 38 ft 23 kts 23°
2026-05-06 05:34 1.34807 103.99114 37 ft 25 kts 22°
2026-05-06 05:34 1.34968 103.99182 37 ft 25 kts 22°
2026-05-06 05:34 1.35129 103.99249 37 ft 25 kts 22°
2026-05-06 05:35 1.35290 103.99316 37 ft 25 kts 22°
2026-05-06 05:35 1.35451 103.99384 37 ft 25 kts 22°
2026-05-06 05:35 1.35611 103.99451 38 ft 25 kts 23°
2026-05-06 05:35 1.35771 103.99519 37 ft 25 kts 23°
2026-05-06 05:36 1.35933 103.99586 37 ft 25 kts 22°
2026-05-06 05:36 1.36094 103.99653 37 ft 25 kts 22°
2026-05-06 05:36 1.36206 103.99700 37 ft 11 kts 22°
2026-05-06 05:36 1.36242 103.99751 36 ft 9 kts 98°
2026-05-06 05:37 1.36219 103.99809 36 ft 9 kts 112°
2026-05-06 05:37 1.36193 103.99866 35 ft 9 kts 124°
2026-05-06 05:37 1.36141 103.99877 35 ft 8 kts 202°
2026-05-06 05:37 1.36035 103.99831 35 ft 35 kts 203°
2026-05-06 05:38 1.35560 103.99631 39 ft 113 kts 202°
2026-05-06 05:38 1.34614 103.99233 38 ft 179 kts 203°
2026-05-06 05:38 1.33373 103.98722 479 ft 193 kts 201°
2026-05-06 05:38 1.32131 103.98192 1146 ft 198 kts 203°
2026-05-06 05:39 1.30871 103.97653 1923 ft 198 kts 203°
2026-05-06 05:39 1.29537 103.97086 2153 ft 220 kts 203°
2026-05-06 05:39 1.28053 103.96458 2414 ft 241 kts 202°
2026-05-06 05:39 1.26470 103.95788 2931 ft 252 kts 202°
2026-05-06 05:40 1.24828 103.95108 3522 ft 258 kts 199°
2026-05-06 05:40 1.23052 103.94934 4040 ft 265 kts 167°
2026-05-06 05:40 1.21401 103.95768 4670 ft 270 kts 140°
2026-05-06 05:40 1.19981 103.97027 5201 ft 277 kts 139°
2026-05-06 05:41 1.18535 103.98302 5834 ft 278 kts 139°
2026-05-06 05:41 1.17102 103.99561 6006 ft 281 kts 139°
2026-05-06 05:41 1.15623 104.00855 6005 ft 282 kts 139°
2026-05-06 05:41 1.14324 104.02281 5980 ft 277 kts 118°
2026-05-06 05:42 1.13546 104.04038 6011 ft 279 kts 112°
2026-05-06 05:42 1.12783 104.05847 6011 ft 284 kts 113°
2026-05-06 05:42 1.12154 104.07719 6159 ft 284 kts 96°
2026-05-06 05:42 1.12245 104.09677 6823 ft 283 kts 80°
2026-05-06 05:43 1.12615 104.11615 7520 ft 284 kts 79°
2026-05-06 05:43 1.13009 104.13547 8259 ft 285 kts 77°
2026-05-06 05:43 1.13596 104.15458 8923 ft 290 kts 70°
2026-05-06 05:43 1.14307 104.17351 9631 ft 292 kts 69°
2026-05-06 05:44 1.15033 104.19227 10248 ft 295 kts 69°
2026-05-06 05:44 1.15794 104.21206 10526 ft 314 kts 69°
2026-05-06 05:44 1.16595 104.23319 10717 ft 337 kts 70°
2026-05-06 05:44 1.17447 104.25593 10877 ft 359 kts 70°
2026-05-06 05:45 1.18337 104.27994 11193 ft 375 kts 70°
2026-05-06 05:45 1.19248 104.30466 11751 ft 384 kts 70°
2026-05-06 05:45 1.20162 104.32956 12523 ft 387 kts 70°
2026-05-06 05:45 1.21089 104.35489 13386 ft 389 kts 70°
2026-05-06 05:46 1.22021 104.38039 14098 ft 393 kts 70°
2026-05-06 05:46 1.22963 104.40616 14742 ft 397 kts 70°
2026-05-06 05:46 1.23914 104.43220 15389 ft 401 kts 70°
2026-05-06 05:46 1.24876 104.45853 16030 ft 405 kts 70°
2026-05-06 05:47 1.25845 104.48508 16650 ft 409 kts 70°
2026-05-06 05:47 1.26826 104.51192 17264 ft 412 kts 70°
2026-05-06 05:47 1.27817 104.53904 17882 ft 416 kts 70°
2026-05-06 05:47 1.28813 104.56633 18436 ft 420 kts 70°
2026-05-06 05:48 1.29819 104.59387 18948 ft 424 kts 70°
2026-05-06 05:48 1.30820 104.62127 19468 ft 426 kts 70°
2026-05-06 05:48 1.31841 104.64922 19990 ft 430 kts 70°
2026-05-06 05:48 1.32801 104.67762 20492 ft 432 kts 75°
2026-05-06 05:49 1.33453 104.70709 20996 ft 435 kts 81°
2026-05-06 05:49 1.33836 104.73718 21483 ft 438 kts 86°
2026-05-06 05:49 1.33935 104.76776 21963 ft 441 kts 89°
2026-05-06 05:49 1.33976 104.79856 22431 ft 445 kts 89°
2026-05-06 05:50 1.34021 104.82960 22884 ft 448 kts 89°
2026-05-06 05:50 1.34085 104.86049 23338 ft 451 kts 88°
2026-05-06 05:50 1.34162 104.89197 23728 ft 454 kts 88°
2026-05-06 05:50 1.34241 104.92363 24101 ft 456 kts 88°
2026-05-06 05:51 1.34319 104.95543 24477 ft 459 kts 88°
2026-05-06 05:51 1.34396 104.98738 24845 ft 461 kts 88°
2026-05-06 05:51 1.34473 105.01954 25199 ft 464 kts 88°
2026-05-06 05:51 1.34550 105.05192 25548 ft 467 kts 88°
2026-05-06 05:52 1.34628 105.08454 25905 ft 469 kts 88°
2026-05-06 05:52 1.34706 105.11728 26262 ft 472 kts 88°
2026-05-06 05:52 1.34784 105.15012 26587 ft 474 kts 89°
2026-05-06 05:52 1.34863 105.18316 26924 ft 477 kts 89°
2026-05-06 05:53 1.34942 105.21592 27243 ft 479 kts 89°
2026-05-06 05:53 1.35021 105.24933 27564 ft 482 kts 89°
2026-05-06 05:53 1.35101 105.28290 27880 ft 484 kts 89°
2026-05-06 05:53 1.35182 105.31658 28179 ft 486 kts 89°
2026-05-06 05:54 1.35263 105.35090 28479 ft 489 kts 89°
2026-05-06 05:54 1.35344 105.38493 28752 ft 491 kts 89°
2026-05-06 05:54 1.35425 105.41868 29007 ft 493 kts 89°
2026-05-06 05:54 1.35506 105.45303 29261 ft 495 kts 89°
2026-05-06 05:55 1.35588 105.48751 29509 ft 497 kts 89°
2026-05-06 05:55 1.35671 105.52217 29763 ft 499 kts 89°
2026-05-06 05:55 1.35753 105.55681 30047 ft 499 kts 89°
2026-05-06 05:55 1.35835 105.59147 30339 ft 498 kts 89°
2026-05-06 05:56 1.35917 105.62612 30648 ft 497 kts 89°
2026-05-06 05:56 1.35999 105.66067 30945 ft 497 kts 89°
2026-05-06 05:56 1.36080 105.69481 31235 ft 496 kts 89°
2026-05-06 05:56 1.36257 105.72924 31460 ft 495 kts 81°
2026-05-06 05:57 1.37237 105.76219 31564 ft 499 kts 64°
2026-05-06 05:57 1.39122 105.79118 31822 ft 499 kts 50°
2026-05-06 05:57 1.41601 105.81549 32140 ft 499 kts 38°
2026-05-06 05:57 1.44560 105.83365 32412 ft 498 kts 28°
2026-05-06 05:58 1.47666 105.84932 32621 ft 500 kts 27°
2026-05-06 05:58 1.50798 105.86457 32885 ft 500 kts 27°
2026-05-06 05:58 1.53923 105.87985 33198 ft 499 kts 27°
2026-05-06 05:58 1.56986 105.89513 33524 ft 498 kts 27°
2026-05-06 05:59 1.60113 105.91102 33838 ft 497 kts 28°
2026-05-06 05:59 1.63146 105.92664 34087 ft 497 kts 28°
2026-05-06 05:59 1.66223 105.94259 34367 ft 496 kts 28°
2026-05-06 05:59 1.69283 105.95848 34669 ft 494 kts 28°
2026-05-06 06:00 1.72340 105.97434 34775 ft 496 kts 28°
2026-05-06 06:00 1.75412 105.99025 34822 ft 498 kts 28°
2026-05-06 06:00 1.81506 106.02179 34846 ft 494 kts 28°
2026-05-06 06:01 1.87590 106.05327 34849 ft 490 kts 28°
2026-05-06 06:01 1.93642 106.08458 34858 ft 489 kts 28°
2026-05-06 06:02 1.99684 106.11584 34857 ft 489 kts 28°
2026-05-06 06:02 2.04713 106.14186 34855 ft 490 kts 28°
2026-05-06 06:03 2.10782 106.17328 34857 ft 491 kts 28°
2026-05-06 06:03 2.16838 106.20464 34853 ft 492 kts 28°
2026-05-06 06:04 2.22933 106.23620 34852 ft 493 kts 28°
2026-05-06 06:04 2.29040 106.26783 34854 ft 494 kts 28°
2026-05-06 06:05 2.35154 106.29949 34854 ft 495 kts 28°
2026-05-06 06:05 2.41263 106.33114 34851 ft 495 kts 28°
2026-05-06 06:06 2.47385 106.36286 34850 ft 494 kts 28°
2026-05-06 06:06 2.53454 106.39431 34852 ft 494 kts 28°
2026-05-06 06:07 2.59561 106.42596 34847 ft 494 kts 28°
2026-05-06 06:07 2.65659 106.45766 34850 ft 493 kts 30°
2026-05-06 06:08 2.71301 106.49622 34849 ft 491 kts 42°
2026-05-06 06:08 2.76283 106.54275 34850 ft 490 kts 44°
2026-05-06 06:09 2.81217 106.58939 34848 ft 490 kts 44°
2026-05-06 06:09 2.86194 106.63600 34846 ft 490 kts 44°
2026-05-06 06:10 2.91202 106.68263 34848 ft 491 kts 44°
2026-05-06 06:10 2.96200 106.72910 34851 ft 491 kts 44°
2026-05-06 06:11 3.01198 106.77559 34850 ft 491 kts 44°
2026-05-06 06:11 3.06199 106.82213 34848 ft 491 kts 44°
2026-05-06 06:12 3.11199 106.86868 34848 ft 491 kts 44°
2026-05-06 06:12 3.16166 106.91492 34847 ft 490 kts 44°
2026-05-06 06:13 3.21181 106.96162 34843 ft 490 kts 44°
2026-05-06 06:13 3.26171 107.00809 34846 ft 490 kts 44°
2026-05-06 06:14 3.31165 107.05461 34847 ft 490 kts 44°
2026-05-06 06:14 3.36125 107.10081 34846 ft 490 kts 44°
2026-05-06 06:15 3.41121 107.14736 34844 ft 490 kts 44°
2026-05-06 06:15 3.46112 107.19386 34846 ft 490 kts 44°
2026-05-06 06:16 3.51102 107.24037 34844 ft 490 kts 44°
2026-05-06 06:16 3.56063 107.28661 34844 ft 490 kts 44°
2026-05-06 06:17 3.61059 107.33318 34840 ft 490 kts 44°
2026-05-06 06:17 3.66053 107.37975 34848 ft 490 kts 44°
2026-05-06 06:18 3.71043 107.42628 34845 ft 490 kts 44°
2026-05-06 06:18 3.76033 107.47282 34843 ft 490 kts 44°
2026-05-06 06:19 3.81025 107.51939 34845 ft 490 kts 44°
2026-05-06 06:19 3.86011 107.56591 34842 ft 490 kts 44°
2026-05-06 06:20 3.90974 107.61223 34845 ft 490 kts 44°
2026-05-06 06:20 3.95966 107.65882 34842 ft 490 kts 44°
2026-05-06 06:21 4.00959 107.70542 34845 ft 490 kts 44°
2026-05-06 06:21 4.05927 107.75181 34842 ft 490 kts 44°
2026-05-06 06:22 4.10925 107.79848 34841 ft 490 kts 44°
2026-05-06 06:22 4.15920 107.84513 34838 ft 490 kts 44°
2026-05-06 06:23 4.20908 107.89172 34840 ft 490 kts 44°
2026-05-06 06:23 4.25900 107.93837 34841 ft 490 kts 44°
2026-05-06 06:24 4.30891 107.98501 34839 ft 491 kts 44°
2026-05-06 06:24 4.35857 108.03142 34841 ft 491 kts 44°
2026-05-06 06:25 4.40864 108.07823 34843 ft 491 kts 44°
2026-05-06 06:26 4.48360 108.14833 34842 ft 491 kts 44°
2026-05-06 06:26 4.53351 108.19501 34839 ft 491 kts 44°
2026-05-06 06:27 4.58309 108.24140 34843 ft 491 kts 44°
2026-05-06 06:27 4.63302 108.28813 34839 ft 491 kts 44°
2026-05-06 06:28 4.68310 108.33501 34840 ft 491 kts 44°
2026-05-06 06:28 4.73250 108.38228 34841 ft 491 kts 47°
2026-05-06 06:29 4.77618 108.43471 34844 ft 490 kts 52°
2026-05-06 06:29 4.81879 108.48813 34843 ft 490 kts 52°
2026-05-06 06:30 4.86155 108.54146 34842 ft 490 kts 52°
2026-05-06 06:30 4.90457 108.59472 34838 ft 491 kts 52°
2026-05-06 06:31 4.94735 108.64753 34839 ft 491 kts 52°
2026-05-06 06:31 4.99039 108.70068 34844 ft 491 kts 51°
2026-05-06 06:32 5.03342 108.75383 34839 ft 491 kts 51°
2026-05-06 06:32 5.07643 108.80700 34835 ft 491 kts 52°
2026-05-06 06:33 5.11943 108.86016 34837 ft 490 kts 51°
2026-05-06 06:33 5.16245 108.91335 34840 ft 491 kts 51°
2026-05-06 06:34 5.20547 108.96657 34840 ft 491 kts 51°
2026-05-06 06:34 5.24847 109.01977 34839 ft 491 kts 51°
2026-05-06 06:35 5.29118 109.07263 34837 ft 491 kts 51°
2026-05-06 06:35 5.33434 109.12605 34838 ft 490 kts 51°
2026-05-06 06:36 5.37731 109.17926 34839 ft 490 kts 51°
2026-05-06 06:36 5.42027 109.23246 34845 ft 490 kts 51°
2026-05-06 06:37 5.46300 109.28540 34842 ft 490 kts 51°
2026-05-06 06:37 5.50601 109.33868 34838 ft 490 kts 51°
2026-05-06 06:38 5.54890 109.39184 34837 ft 490 kts 51°
2026-05-06 06:38 5.59189 109.44513 34834 ft 490 kts 52°
2026-05-06 06:39 5.63463 109.49813 34833 ft 490 kts 52°
2026-05-06 06:39 5.67764 109.55148 34837 ft 490 kts 52°
2026-05-06 06:40 5.72056 109.60473 34837 ft 491 kts 52°
2026-05-06 06:40 5.76328 109.65774 34835 ft 491 kts 51°
2026-05-06 06:41 5.80632 109.71117 34839 ft 491 kts 52°
2026-05-06 06:41 5.84931 109.76454 34838 ft 491 kts 52°
2026-05-06 06:42 5.89223 109.81786 34835 ft 491 kts 52°
2026-05-06 06:42 5.93516 109.87119 34836 ft 491 kts 52°
2026-05-06 06:43 5.97784 109.92423 34837 ft 490 kts 52°
2026-05-06 06:43 6.02079 109.97761 34835 ft 490 kts 52°
2026-05-06 06:44 6.06366 110.03092 34833 ft 490 kts 52°
2026-05-06 06:44 6.10657 110.08429 34833 ft 490 kts 52°
2026-05-06 06:45 6.14940 110.13757 34832 ft 490 kts 52°
2026-05-06 06:45 6.19196 110.19053 34836 ft 490 kts 52°
2026-05-06 06:46 6.23485 110.24391 34833 ft 490 kts 52°
2026-05-06 06:46 6.27777 110.29736 34836 ft 490 kts 52°
2026-05-06 06:47 6.31346 110.34181 34832 ft 491 kts 52°
2026-05-06 06:47 6.36338 110.40401 34832 ft 491 kts 52°
2026-05-06 06:48 6.39911 110.44853 34835 ft 491 kts 52°
2026-05-06 06:48 6.44202 110.50202 34834 ft 491 kts 52°
2026-05-06 06:49 6.48489 110.55547 34833 ft 491 kts 52°
2026-05-06 06:49 6.52782 110.60902 34833 ft 491 kts 52°
2026-05-06 06:50 6.57076 110.66260 34830 ft 491 kts 52°
2026-05-06 06:50 6.61367 110.71614 34829 ft 491 kts 52°
2026-05-06 06:51 6.65629 110.76936 34833 ft 491 kts 52°
2026-05-06 06:51 6.69908 110.82279 34830 ft 490 kts 52°
2026-05-06 06:52 6.74185 110.87622 34830 ft 489 kts 52°
2026-05-06 06:52 6.78454 110.92957 34829 ft 489 kts 52°
2026-05-06 06:53 6.82726 110.98296 34829 ft 488 kts 52°
2026-05-06 06:53 6.86958 111.03588 34829 ft 487 kts 52°
2026-05-06 06:54 6.91201 111.08895 34830 ft 486 kts 52°
2026-05-06 06:54 6.95438 111.14196 34827 ft 486 kts 52°
2026-05-06 06:55 6.99673 111.19497 34829 ft 485 kts 52°
2026-05-06 06:55 7.03877 111.24761 34827 ft 485 kts 52°
2026-05-06 06:56 7.08107 111.30058 34827 ft 485 kts 52°
2026-05-06 06:56 7.12339 111.35360 34828 ft 485 kts 52°
2026-05-06 06:57 7.16572 111.40666 34829 ft 486 kts 52°
2026-05-06 06:57 7.20813 111.45984 34828 ft 486 kts 52°
2026-05-06 06:58 7.25051 111.51300 34826 ft 486 kts 52°
2026-05-06 06:58 7.29261 111.56586 34827 ft 487 kts 52°
2026-05-06 06:59 7.33479 111.61917 34829 ft 487 kts 52°
2026-05-06 06:59 7.37700 111.67263 34828 ft 487 kts 52°
2026-05-06 07:00 7.41925 111.72615 34825 ft 487 kts 52°
2026-05-06 07:00 7.46151 111.77967 34828 ft 488 kts 52°
2026-05-06 07:01 7.50355 111.83292 34825 ft 488 kts 52°
2026-05-06 07:01 7.54582 111.88648 34831 ft 488 kts 52°
2026-05-06 07:02 7.58803 111.93998 34830 ft 488 kts 52°
2026-05-06 07:02 7.63033 111.99362 34826 ft 488 kts 52°
2026-05-06 07:03 7.67255 112.04717 34828 ft 488 kts 52°
2026-05-06 07:03 7.71453 112.10044 34827 ft 488 kts 52°
2026-05-06 07:04 7.75682 112.15412 34827 ft 487 kts 52°
2026-05-06 07:04 7.79897 112.20764 34831 ft 487 kts 52°
2026-05-06 07:05 7.84115 112.26122 34829 ft 487 kts 52°
2026-05-06 07:05 7.88333 112.31482 34832 ft 487 kts 52°
2026-05-06 07:06 7.92552 112.36845 34827 ft 488 kts 52°
2026-05-06 07:06 7.96746 112.42179 34827 ft 488 kts 52°
2026-05-06 07:07 8.00974 112.47558 34829 ft 488 kts 52°
2026-05-06 07:07 8.05160 112.52884 34829 ft 488 kts 52°
2026-05-06 07:08 8.09377 112.58253 34828 ft 488 kts 52°
2026-05-06 07:08 8.13590 112.63618 34831 ft 487 kts 52°
2026-05-06 07:09 8.17818 112.69004 34830 ft 487 kts 52°
2026-05-06 07:09 8.22006 112.74342 34829 ft 487 kts 52°
2026-05-06 07:10 8.26219 112.79715 34828 ft 487 kts 52°
2026-05-06 07:10 8.30428 112.85083 34827 ft 488 kts 52°
2026-05-06 07:11 8.34635 112.90451 34826 ft 488 kts 52°
2026-05-06 07:11 8.38833 112.95810 34827 ft 488 kts 52°
2026-05-06 07:12 8.43043 113.01187 34828 ft 489 kts 52°
2026-05-06 07:12 8.47272 113.06588 34828 ft 489 kts 52°
2026-05-06 07:13 8.51494 113.11984 34828 ft 489 kts 52°
2026-05-06 07:13 8.55721 113.17388 34829 ft 489 kts 52°
2026-05-06 07:14 8.59912 113.22748 34828 ft 490 kts 52°
2026-05-06 07:14 8.64138 113.28156 34825 ft 490 kts 52°
2026-05-06 07:15 8.68362 113.33562 34831 ft 490 kts 52°
2026-05-06 07:15 8.72583 113.38967 34832 ft 489 kts 52°
2026-05-06 07:16 8.76802 113.44372 34830 ft 489 kts 52°
2026-05-06 07:16 8.81021 113.49779 34830 ft 489 kts 52°
2026-05-06 07:17 8.85206 113.55145 34827 ft 489 kts 52°
2026-05-06 07:17 8.89418 113.60547 34827 ft 489 kts 52°
2026-05-06 07:18 8.93624 113.65944 34826 ft 488 kts 52°
2026-05-06 07:18 8.97829 113.71342 34828 ft 488 kts 52°
2026-05-06 07:19 9.02030 113.76738 34826 ft 488 kts 52°
2026-05-06 07:19 9.06236 113.82142 34825 ft 488 kts 52°
2026-05-06 07:20 9.10448 113.87556 34829 ft 489 kts 52°
2026-05-06 07:20 9.14655 113.92964 34829 ft 489 kts 52°
2026-05-06 07:21 9.18839 113.98348 34830 ft 490 kts 52°
2026-05-06 07:21 9.23077 114.03802 34829 ft 490 kts 52°
2026-05-06 07:22 9.27273 114.09204 34833 ft 490 kts 52°
2026-05-06 07:22 9.31491 114.14638 34833 ft 491 kts 52°
2026-05-06 07:23 9.35715 114.20081 34829 ft 491 kts 52°
2026-05-06 07:23 9.39946 114.25536 34833 ft 492 kts 52°
2026-05-06 07:24 9.44144 114.30950 34832 ft 492 kts 52°
2026-05-06 07:24 9.48378 114.36413 34833 ft 493 kts 52°
2026-05-06 07:25 9.52608 114.41875 34833 ft 493 kts 52°
2026-05-06 07:25 9.56848 114.47351 34834 ft 493 kts 52°
2026-05-06 07:26 9.61090 114.52831 34830 ft 494 kts 52°
2026-05-06 07:26 9.65312 114.58290 34836 ft 494 kts 52°
2026-05-06 07:27 9.69552 114.63774 34833 ft 494 kts 52°
2026-05-06 07:27 9.73795 114.69265 34833 ft 495 kts 52°
2026-05-06 07:28 9.78048 114.74771 34834 ft 495 kts 52°
2026-05-06 07:28 9.84395 114.82989 34833 ft 496 kts 51°
2026-05-06 07:29 9.88670 114.88493 34834 ft 496 kts 51°
2026-05-06 07:29 9.92953 114.94006 34833 ft 496 kts 51°
2026-05-06 07:30 9.97220 114.99506 34831 ft 496 kts 51°
2026-05-06 07:30 10.01488 115.05012 34832 ft 496 kts 51°
2026-05-06 07:31 10.05760 115.10529 34835 ft 496 kts 51°
2026-05-06 07:31 10.10030 115.16043 34834 ft 496 kts 51°
2026-05-06 07:32 10.14272 115.21524 34837 ft 497 kts 51°
2026-05-06 07:32 10.18547 115.27051 34834 ft 497 kts 51°
2026-05-06 07:33 10.22799 115.32551 34835 ft 497 kts 51°
2026-05-06 07:33 10.27068 115.38075 34835 ft 497 kts 51°
2026-05-06 07:34 10.31340 115.43606 34837 ft 497 kts 51°
2026-05-06 07:34 10.34893 115.48209 34836 ft 497 kts 51°
2026-05-06 07:35 10.39165 115.53744 34838 ft 498 kts 51°
2026-05-06 07:35 10.43435 115.59280 34835 ft 498 kts 51°
2026-05-06 07:36 10.47713 115.64829 34838 ft 499 kts 51°
2026-05-06 07:36 10.51999 115.70391 34837 ft 499 kts 51°
2026-05-06 07:37 10.56256 115.75918 34840 ft 499 kts 51°
2026-05-06 07:37 10.60535 115.81477 34839 ft 500 kts 51°
2026-05-06 07:38 10.64819 115.87045 34838 ft 500 kts 51°
2026-05-06 07:38 10.69104 115.92618 34840 ft 500 kts 51°
2026-05-06 07:39 10.73395 115.98201 34839 ft 501 kts 51°
2026-05-06 07:39 10.77688 116.03790 34838 ft 501 kts 51°
2026-05-06 07:40 10.81991 116.09393 34836 ft 502 kts 51°
2026-05-06 07:40 10.86282 116.14987 34838 ft 502 kts 51°
2026-05-06 07:41 10.90558 116.20562 34837 ft 502 kts 51°
2026-05-06 07:41 10.94857 116.26169 34839 ft 502 kts 51°
2026-05-06 07:42 10.99154 116.31778 34838 ft 502 kts 51°
2026-05-06 07:42 11.03463 116.37405 34838 ft 502 kts 51°
2026-05-06 07:43 11.07732 116.42984 34838 ft 502 kts 51°
2026-05-06 07:43 11.12030 116.48604 34837 ft 502 kts 51°
2026-05-06 07:44 11.16319 116.54215 34837 ft 502 kts 51°
2026-05-06 07:44 11.20619 116.59838 34835 ft 503 kts 51°
2026-05-06 07:45 11.24915 116.65462 34836 ft 503 kts 51°
2026-05-06 07:45 11.29209 116.71087 34838 ft 503 kts 51°
2026-05-06 07:46 11.33505 116.76718 34840 ft 503 kts 51°
2026-05-06 07:46 11.37802 116.82354 34837 ft 504 kts 51°
2026-05-06 07:47 11.42082 116.87971 34841 ft 504 kts 51°
2026-05-06 07:47 11.46385 116.93623 34842 ft 504 kts 51°
2026-05-06 07:48 11.50684 116.99269 34842 ft 504 kts 51°
2026-05-06 07:48 11.54986 117.04925 34838 ft 504 kts 51°
2026-05-06 07:49 11.59274 117.10565 34841 ft 503 kts 51°
2026-05-06 07:49 11.63545 117.16186 34843 ft 503 kts 51°
2026-05-06 07:50 11.67840 117.21840 34839 ft 503 kts 51°
2026-05-06 07:50 11.72089 117.27439 34842 ft 502 kts 51°
2026-05-06 07:51 11.76367 117.33079 34841 ft 502 kts 51°
2026-05-06 07:51 11.80645 117.38722 34841 ft 502 kts 51°
2026-05-06 07:52 11.84922 117.44366 34842 ft 502 kts 51°
2026-05-06 07:52 11.89202 117.50018 34845 ft 503 kts 51°
2026-05-06 07:53 11.93482 117.55672 34844 ft 503 kts 51°
2026-05-06 07:53 11.97743 117.61305 34846 ft 503 kts 51°
2026-05-06 07:54 12.02032 117.66979 34844 ft 503 kts 51°
2026-05-06 07:54 12.06313 117.72645 34844 ft 503 kts 51°
2026-05-06 07:55 12.10594 117.78315 34844 ft 504 kts 51°
2026-05-06 07:55 12.14874 117.83987 34842 ft 504 kts 51°
2026-05-06 07:56 12.19156 117.89664 34843 ft 504 kts 51°
2026-05-06 07:56 12.23412 117.95310 34846 ft 504 kts 51°
2026-05-06 07:57 12.27692 118.00992 34844 ft 504 kts 51°
2026-05-06 07:57 12.31971 118.06675 34843 ft 504 kts 51°
2026-05-06 07:58 12.36256 118.12371 34849 ft 504 kts 51°
2026-05-06 07:58 12.40509 118.18026 34844 ft 504 kts 51°
2026-05-06 07:59 12.44787 118.23720 34845 ft 504 kts 51°
2026-05-06 07:59 12.49059 118.29408 34843 ft 504 kts 51°
2026-05-06 08:00 12.53332 118.35101 34843 ft 504 kts 51°
2026-05-06 08:00 12.57601 118.40792 34844 ft 504 kts 51°
2026-05-06 08:01 12.61870 118.46487 34841 ft 504 kts 51°
2026-05-06 08:01 12.66112 118.52150 34849 ft 504 kts 51°
2026-05-06 08:02 12.70378 118.57847 34846 ft 504 kts 51°
2026-05-06 08:02 12.74650 118.63556 34845 ft 504 kts 51°
2026-05-06 08:03 12.78913 118.69257 34844 ft 504 kts 51°
2026-05-06 08:03 12.83172 118.74957 34847 ft 504 kts 51°
2026-05-06 08:04 12.87437 118.80668 34844 ft 504 kts 51°
2026-05-06 08:04 12.91665 118.86333 34845 ft 504 kts 51°
2026-05-06 08:05 12.95926 118.92046 34845 ft 503 kts 51°
2026-05-06 08:05 13.00185 118.97762 34845 ft 503 kts 51°
2026-05-06 08:06 13.04450 119.03457 34845 ft 503 kts 51°
2026-05-06 08:06 13.08757 119.09119 34845 ft 503 kts 51°
2026-05-06 08:07 13.13044 119.14750 34846 ft 503 kts 51°
2026-05-06 08:07 13.17350 119.20422 34846 ft 504 kts 51°
2026-05-06 08:08 13.21655 119.26105 34843 ft 504 kts 51°
2026-05-06 08:08 13.25955 119.31787 34844 ft 504 kts 51°
2026-05-06 08:09 13.30260 119.37477 34844 ft 504 kts 51°
2026-05-06 08:09 13.34570 119.43178 34845 ft 505 kts 51°
2026-05-06 08:10 13.38858 119.48854 34845 ft 505 kts 51°
2026-05-06 08:10 13.43170 119.54564 34844 ft 505 kts 51°
2026-05-06 08:11 13.47475 119.60269 34843 ft 505 kts 51°
2026-05-06 08:11 13.51783 119.65982 34840 ft 506 kts 51°
2026-05-06 08:12 13.56064 119.71663 34843 ft 506 kts 51°
2026-05-06 08:12 13.60376 119.77389 34841 ft 506 kts 51°
2026-05-06 08:13 13.64687 119.83118 34841 ft 506 kts 51°
2026-05-06 08:13 13.68996 119.88847 34842 ft 506 kts 51°
2026-05-06 08:14 13.73311 119.94590 34839 ft 506 kts 51°
2026-05-06 08:14 13.77587 120.00284 34839 ft 506 kts 51°
2026-05-06 08:15 13.81896 120.06019 34838 ft 506 kts 50°
2026-05-06 08:15 13.86878 120.11096 34847 ft 504 kts 37°
2026-05-06 08:16 13.92757 120.14977 34849 ft 501 kts 27°
2026-05-06 08:16 13.98924 120.18336 34835 ft 502 kts 26°
2026-05-06 08:17 14.05086 120.21726 34840 ft 502 kts 27°
2026-05-06 08:17 14.11199 120.25152 34840 ft 502 kts 27°
2026-05-06 08:18 14.17381 120.28629 34838 ft 503 kts 27°
2026-05-06 08:18 14.23486 120.32059 34842 ft 503 kts 27°
2026-05-06 08:19 14.29635 120.35507 34841 ft 503 kts 27°
2026-05-06 08:19 14.35790 120.38958 34842 ft 503 kts 27°
2026-05-06 08:20 14.40897 120.41826 34842 ft 503 kts 27°
2026-05-06 08:20 14.47054 120.45284 34846 ft 503 kts 27°
2026-05-06 08:21 14.53220 120.48720 34840 ft 504 kts 27°
2026-05-06 08:21 14.59387 120.52160 34851 ft 504 kts 27°
2026-05-06 08:22 14.65548 120.55642 34847 ft 504 kts 27°
2026-05-06 08:22 14.71698 120.59125 34843 ft 504 kts 27°
2026-05-06 08:23 14.77842 120.62613 34845 ft 503 kts 27°
2026-05-06 08:23 14.83981 120.66097 34844 ft 503 kts 27°
2026-05-06 08:24 14.89987 120.69455 34852 ft 503 kts 27°
2026-05-06 08:24 14.96153 120.72900 34855 ft 503 kts 27°
2026-05-06 08:25 15.02296 120.76388 34853 ft 504 kts 27°
2026-05-06 08:25 15.08450 120.79895 34853 ft 504 kts 27°
2026-05-06 08:26 15.14557 120.83362 34857 ft 504 kts 27°
2026-05-06 08:26 15.20711 120.86836 34849 ft 504 kts 27°
2026-05-06 08:27 15.26863 120.90312 34846 ft 504 kts 27°
2026-05-06 08:27 15.33013 120.93816 34850 ft 505 kts 30°
2026-05-06 08:28 15.38647 120.98174 34845 ft 508 kts 41°
2026-05-06 08:28 15.43557 121.03451 34990 ft 507 kts 46°
2026-05-06 08:29 15.45953 121.06118 35406 ft 504 kts 46°
2026-05-06 08:29 15.48335 121.08765 35827 ft 501 kts 46°
2026-05-06 08:29 15.50712 121.11395 36136 ft 500 kts 46°
2026-05-06 08:29 15.53067 121.13987 36465 ft 499 kts 46°
2026-05-06 08:30 15.55451 121.16603 36749 ft 498 kts 45°
2026-05-06 08:30 15.57841 121.19220 36816 ft 501 kts 45°
2026-05-06 08:30 15.62644 121.24477 36873 ft 500 kts 45°
2026-05-06 08:31 15.67415 121.29704 36894 ft 497 kts 45°
2026-05-06 08:31 15.72166 121.34915 36894 ft 495 kts 45°
2026-05-06 08:32 15.76874 121.40085 36902 ft 494 kts 45°
2026-05-06 08:32 15.81592 121.45269 36921 ft 494 kts 45°
2026-05-06 08:33 15.86321 121.50467 36916 ft 495 kts 45°
2026-05-06 08:33 15.91063 121.55685 36917 ft 497 kts 46°
2026-05-06 08:34 15.98174 121.63517 36925 ft 499 kts 46°
2026-05-06 08:35 16.02945 121.68776 36911 ft 501 kts 46°
2026-05-06 08:35 16.07730 121.74054 36908 ft 500 kts 46°
2026-05-06 08:36 16.12506 121.79327 36907 ft 501 kts 46°
2026-05-06 08:36 16.17286 121.84609 36902 ft 501 kts 46°
2026-05-06 08:37 16.22058 121.89885 36899 ft 501 kts 46°
2026-05-06 08:37 16.26801 121.95132 36897 ft 501 kts 46°
2026-05-06 08:38 16.31572 122.00415 36898 ft 500 kts 46°
2026-05-06 08:38 16.36335 122.05695 36892 ft 499 kts 46°
2026-05-06 08:39 16.41096 122.10975 36895 ft 499 kts 46°
2026-05-06 08:39 16.45822 122.16219 36902 ft 498 kts 46°
2026-05-06 08:40 16.50573 122.21496 36905 ft 499 kts 46°
2026-05-06 08:40 16.55332 122.26786 36903 ft 500 kts 46°
2026-05-06 08:41 16.60089 122.32077 36916 ft 500 kts 46°
2026-05-06 08:41 16.64827 122.37352 36904 ft 501 kts 46°
2026-05-06 08:42 16.69591 122.42661 36908 ft 501 kts 46°
2026-05-06 08:42 16.74355 122.47972 36908 ft 501 kts 46°
2026-05-06 08:43 16.79126 122.53297 36904 ft 501 kts 46°
2026-05-06 08:43 16.83889 122.58616 36904 ft 501 kts 46°
2026-05-06 08:44 16.88620 122.63903 36904 ft 502 kts 46°
2026-05-06 08:44 16.93386 122.69234 36901 ft 502 kts 46°
2026-05-06 08:45 16.98149 122.74567 36899 ft 502 kts 46°
2026-05-06 08:45 17.02920 122.79911 36899 ft 502 kts 46°
2026-05-06 08:46 17.07689 122.85259 36904 ft 502 kts 46°
2026-05-06 08:46 17.12427 122.90576 36903 ft 503 kts 46°
2026-05-06 08:47 17.17195 122.95930 36904 ft 503 kts 46°
2026-05-06 08:47 17.21970 123.01297 36903 ft 503 kts 46°
2026-05-06 08:48 17.26740 123.06663 36904 ft 503 kts 46°
2026-05-06 08:48 17.31482 123.12002 36905 ft 503 kts 46°
2026-05-06 08:49 17.36252 123.17376 36909 ft 503 kts 46°
2026-05-06 08:49 17.41017 123.22749 36907 ft 503 kts 46°
2026-05-06 08:50 17.45785 123.28131 36909 ft 504 kts 46°
2026-05-06 08:50 17.50524 123.33482 36910 ft 504 kts 46°
2026-05-06 08:51 17.55285 123.38865 36907 ft 504 kts 46°
2026-05-06 08:51 17.60049 123.44254 36908 ft 504 kts 46°
2026-05-06 08:52 17.64814 123.49651 36911 ft 504 kts 46°
2026-05-06 08:52 17.69581 123.55053 36910 ft 504 kts 46°
2026-05-06 08:53 17.74349 123.60461 36912 ft 504 kts 46°
2026-05-06 08:53 17.79089 123.65841 36913 ft 505 kts 46°
2026-05-06 08:54 17.83855 123.71256 36912 ft 505 kts 46°
2026-05-06 08:54 17.88621 123.76676 36910 ft 505 kts 46°
2026-05-06 08:55 17.93398 123.82112 36913 ft 506 kts 46°
2026-05-06 08:55 17.98172 123.87550 36919 ft 506 kts 46°
2026-05-06 08:56 18.02943 123.92989 36917 ft 506 kts 46°
2026-05-06 08:56 18.07711 123.98430 36920 ft 506 kts 45°
2026-05-06 08:57 18.12479 124.03875 36922 ft 506 kts 45°
2026-05-06 08:57 18.17228 124.09302 36922 ft 506 kts 45°
2026-05-06 08:58 18.21999 124.14760 36923 ft 507 kts 45°
2026-05-06 08:58 18.26774 124.20227 36925 ft 507 kts 45°
2026-05-06 08:59 18.31515 124.25661 36923 ft 507 kts 45°
2026-05-06 08:59 18.36291 124.31139 36924 ft 507 kts 45°
2026-05-06 09:00 18.41061 124.36614 36923 ft 507 kts 45°
2026-05-06 09:00 18.45835 124.42100 36926 ft 507 kts 45°
2026-05-06 09:01 18.50604 124.47583 36922 ft 508 kts 45°
2026-05-06 09:01 18.55379 124.53079 36929 ft 508 kts 45°
2026-05-06 09:02 18.60150 124.58576 36932 ft 508 kts 45°
2026-05-06 09:02 18.64921 124.64077 36926 ft 509 kts 45°
2026-05-06 09:03 18.69671 124.69560 36931 ft 509 kts 45°
2026-05-06 09:03 18.74450 124.75081 36928 ft 510 kts 45°
2026-05-06 09:04 18.79242 124.80621 36931 ft 510 kts 45°
2026-05-06 09:04 18.84032 124.86165 36930 ft 510 kts 45°
2026-05-06 09:05 18.88793 124.91679 36932 ft 511 kts 45°
2026-05-06 09:05 18.93579 124.97228 36920 ft 511 kts 45°
2026-05-06 09:06 18.98372 125.02790 36934 ft 511 kts 45°
2026-05-06 09:06 19.02350 125.07411 36936 ft 511 kts 45°
2026-05-06 09:07 19.07139 125.12976 36938 ft 511 kts 45°
2026-05-06 09:07 19.11930 125.18551 36924 ft 512 kts 45°
2026-05-06 09:08 19.17501 125.25039 36943 ft 512 kts 45°
2026-05-06 09:08 19.21490 125.29690 36942 ft 512 kts 45°
2026-05-06 09:09 19.26281 125.35279 36928 ft 513 kts 45°
2026-05-06 09:09 19.31080 125.40884 36933 ft 513 kts 45°
2026-05-06 09:10 19.35850 125.46459 36951 ft 514 kts 45°
2026-05-06 09:10 19.40652 125.52078 36933 ft 514 kts 45°
2026-05-06 09:11 19.45451 125.57698 36942 ft 515 kts 45°
2026-05-06 09:11 19.50258 125.63333 36940 ft 516 kts 45°
2026-05-06 09:12 19.55077 125.68988 36941 ft 516 kts 45°
2026-05-06 09:12 19.59897 125.74649 36942 ft 517 kts 45°
2026-05-06 09:13 19.64712 125.80310 36937 ft 517 kts 45°
2026-05-06 09:13 19.69541 125.85993 36939 ft 518 kts 45°
2026-05-06 09:14 19.74335 125.91641 36940 ft 518 kts 45°
2026-05-06 09:14 19.79170 125.97340 36943 ft 518 kts 45°
2026-05-06 09:15 19.83991 126.03031 36945 ft 518 kts 45°
2026-05-06 09:15 19.88820 126.08736 36941 ft 519 kts 45°
2026-05-06 09:16 19.93608 126.14398 36942 ft 519 kts 45°
2026-05-06 09:16 19.98429 126.20105 36947 ft 519 kts 45°
2026-05-06 09:17 20.03252 126.25821 36947 ft 519 kts 45°
2026-05-06 09:17 20.08080 126.31547 36948 ft 520 kts 45°
2026-05-06 09:18 20.12904 126.37275 36949 ft 520 kts 45°
2026-05-06 09:18 20.17734 126.43015 36950 ft 520 kts 45°
2026-05-06 09:19 20.22565 126.48762 36953 ft 521 kts 45°
2026-05-06 09:19 20.27418 126.54541 36951 ft 521 kts 45°
2026-05-06 09:20 20.32217 126.60262 36956 ft 522 kts 45°
2026-05-06 09:20 20.37062 126.66044 36953 ft 522 kts 45°
2026-05-06 09:21 20.41899 126.71822 36959 ft 522 kts 45°
2026-05-06 09:21 20.46735 126.77604 36954 ft 522 kts 45°
2026-05-06 09:22 20.51574 126.83395 36954 ft 523 kts 45°
2026-05-06 09:22 20.56412 126.89193 36951 ft 523 kts 45°
2026-05-06 09:23 20.61218 126.94958 36957 ft 523 kts 45°
2026-05-06 09:23 20.66059 127.00771 36954 ft 523 kts 45°
2026-05-06 09:24 20.70902 127.06592 36960 ft 524 kts 45°
2026-05-06 09:24 20.75747 127.12421 36959 ft 524 kts 45°
2026-05-06 09:25 20.80566 127.18226 36960 ft 524 kts 45°
2026-05-06 09:25 20.85408 127.24064 36960 ft 525 kts 45°
2026-05-06 09:26 20.90243 127.29900 36966 ft 525 kts 45°
2026-05-06 09:26 20.95088 127.35756 36961 ft 525 kts 45°
2026-05-06 09:27 21.00020 127.41516 36962 ft 523 kts 40°
2026-05-06 09:27 21.05600 127.46434 36970 ft 518 kts 33°
2026-05-06 09:28 21.11372 127.51054 36963 ft 518 kts 32°
2026-05-06 09:28 21.17107 127.55672 36963 ft 519 kts 33°
2026-05-06 09:29 21.22860 127.60362 36967 ft 520 kts 33°
2026-05-06 09:29 21.28612 127.65078 36972 ft 520 kts 33°
2026-05-06 09:30 21.34369 127.69804 36975 ft 521 kts 33°
2026-05-06 09:30 21.40003 127.74431 36984 ft 521 kts 33°
2026-05-06 09:31 21.45764 127.79164 36972 ft 521 kts 33°
2026-05-06 09:31 21.51523 127.83901 36974 ft 522 kts 33°
2026-05-06 09:32 21.57289 127.88647 36972 ft 522 kts 33°
2026-05-06 09:32 21.63028 127.93377 36972 ft 522 kts 33°
2026-05-06 09:33 21.68799 127.98139 36974 ft 522 kts 33°
2026-05-06 09:33 21.74562 128.02898 36976 ft 523 kts 33°
2026-05-06 09:34 21.80339 128.07674 36977 ft 523 kts 33°
2026-05-06 09:34 21.86108 128.12449 36975 ft 523 kts 34°
2026-05-06 09:35 21.91883 128.17232 36976 ft 523 kts 34°
2026-05-06 09:35 21.97625 128.21994 36980 ft 523 kts 34°
2026-05-06 09:36 22.03401 128.26790 36980 ft 523 kts 34°
2026-05-06 09:36 22.09146 128.31565 36982 ft 524 kts 34°
2026-05-06 09:37 22.14917 128.36365 36984 ft 524 kts 34°
2026-05-06 09:37 22.20699 128.41181 36984 ft 524 kts 34°
2026-05-06 09:38 22.26475 128.45997 36988 ft 525 kts 34°
2026-05-06 09:38 22.32253 128.50819 36983 ft 525 kts 34°
2026-05-06 09:39 22.38034 128.55649 36985 ft 525 kts 34°
2026-05-06 09:39 22.43772 128.60449 36988 ft 525 kts 34°
2026-05-06 09:40 22.49556 128.65292 36989 ft 525 kts 34°
2026-05-06 09:40 22.58231 128.72565 36990 ft 526 kts 34°
2026-05-06 09:41 22.64015 128.77422 36989 ft 526 kts 34°
2026-05-06 09:41 22.69773 128.82262 36989 ft 526 kts 34°
2026-05-06 09:42 22.75561 128.87132 36986 ft 527 kts 34°
2026-05-06 09:42 22.81351 128.92010 36991 ft 527 kts 34°
2026-05-06 09:43 22.87159 128.96909 36989 ft 528 kts 34°
2026-05-06 09:43 22.92953 129.01802 36989 ft 528 kts 35°
2026-05-06 09:44 22.98715 129.06672 36991 ft 528 kts 35°
2026-05-06 09:44 23.04582 129.11467 36988 ft 527 kts 32°
2026-05-06 09:45 23.10620 129.15989 36991 ft 527 kts 31°
2026-05-06 09:45 23.16667 129.20487 36992 ft 527 kts 31°
2026-05-06 09:46 23.22692 129.25044 36993 ft 528 kts 32°
2026-05-06 09:46 23.28703 129.29634 36992 ft 528 kts 32°
2026-05-06 09:47 23.34713 129.34234 36996 ft 528 kts 32°
2026-05-06 09:47 23.40725 129.38834 36997 ft 528 kts 32°
2026-05-06 09:48 23.46694 129.43404 36995 ft 528 kts 32°
2026-05-06 09:48 23.52708 129.48013 36998 ft 528 kts 32°
2026-05-06 09:49 23.58724 129.52629 36994 ft 527 kts 32°
2026-05-06 09:49 23.64722 129.57237 36999 ft 527 kts 32°
2026-05-06 09:50 23.70675 129.61816 36993 ft 527 kts 32°
2026-05-06 09:50 23.76666 129.66429 37001 ft 527 kts 32°
2026-05-06 09:51 23.82665 129.71054 37006 ft 526 kts 32°
2026-05-06 09:51 23.88645 129.75669 37007 ft 526 kts 33°
2026-05-06 09:52 23.94625 129.80290 37004 ft 525 kts 33°
2026-05-06 09:52 24.00592 129.84906 37005 ft 525 kts 33°
2026-05-06 09:53 24.06555 129.89523 37001 ft 524 kts 33°
2026-05-06 09:53 24.12468 129.94108 37000 ft 524 kts 33°
2026-05-06 09:54 24.17456 129.97980 37005 ft 524 kts 33°
2026-05-06 09:54 24.24365 130.03350 37006 ft 524 kts 33°
2026-05-06 09:55 24.29313 130.07200 37010 ft 524 kts 33°
2026-05-06 09:55 24.35264 130.11835 37011 ft 524 kts 33°
2026-05-06 09:56 24.41240 130.16395 37007 ft 523 kts 32°
2026-05-06 09:56 24.47248 130.20887 37013 ft 522 kts 32°
2026-05-06 09:57 24.53251 130.25386 37013 ft 522 kts 33°
2026-05-06 09:57 24.59204 130.29872 37011 ft 521 kts 33°
2026-05-06 09:58 24.65182 130.34390 37013 ft 521 kts 33°
2026-05-06 09:58 24.71153 130.38910 37014 ft 521 kts 33°
2026-05-06 09:59 24.77120 130.43429 37017 ft 520 kts 33°
2026-05-06 09:59 24.83083 130.47951 37016 ft 520 kts 33°
2026-05-06 10:00 24.89047 130.52479 37021 ft 519 kts 34°
2026-05-06 10:00 24.94962 130.56974 37022 ft 519 kts 34°
2026-05-06 10:01 25.00898 130.61493 37017 ft 519 kts 34°
2026-05-06 10:01 25.06855 130.66031 37026 ft 520 kts 34°
2026-05-06 10:02 25.12820 130.70580 37027 ft 521 kts 34°
2026-05-06 10:02 25.18788 130.75138 37021 ft 522 kts 34°
2026-05-06 10:03 25.24769 130.79712 37024 ft 522 kts 34°
2026-05-06 10:03 25.30708 130.84260 37023 ft 522 kts 34°
2026-05-06 10:04 25.36683 130.88840 37027 ft 522 kts 34°
2026-05-06 10:04 25.42655 130.93423 37028 ft 522 kts 34°
2026-05-06 10:05 25.48625 130.98011 37030 ft 522 kts 34°
2026-05-06 10:05 25.54597 131.02605 37036 ft 522 kts 34°
2026-05-06 10:06 25.60570 131.07207 37024 ft 523 kts 34°
2026-05-06 10:06 25.66542 131.11813 37025 ft 523 kts 34°
2026-05-06 10:07 25.72481 131.16400 37021 ft 523 kts 34°
2026-05-06 10:07 25.78449 131.21015 37021 ft 523 kts 34°
2026-05-06 10:08 25.84413 131.25634 37022 ft 523 kts 35°
2026-05-06 10:08 25.90161 131.30572 37026 ft 523 kts 39°
2026-05-06 10:09 25.95784 131.35710 37021 ft 523 kts 39°
2026-05-06 10:09 26.01403 131.40857 37015 ft 523 kts 39°
2026-05-06 10:10 26.07046 131.45993 37028 ft 524 kts 39°
2026-05-06 10:10 26.12676 131.51105 37014 ft 528 kts 39°
2026-05-06 10:11 26.18361 131.56266 37038 ft 527 kts 39°
2026-05-06 10:11 26.24042 131.61434 37041 ft 527 kts 39°
2026-05-06 10:12 26.29721 131.66610 37039 ft 527 kts 38°
2026-05-06 10:12 26.35397 131.71790 37041 ft 528 kts 39°
2026-05-06 10:13 26.41090 131.76993 37036 ft 529 kts 39°
2026-05-06 10:13 26.46787 131.82206 37039 ft 530 kts 39°
2026-05-06 10:14 26.52460 131.87403 37031 ft 531 kts 38°
2026-05-06 10:14 26.58175 131.92646 37034 ft 531 kts 38°
2026-05-06 10:15 26.63886 131.97893 37035 ft 532 kts 38°
2026-05-06 10:15 26.69602 132.03151 37037 ft 532 kts 39°
2026-05-06 10:16 26.75307 132.08406 37041 ft 531 kts 39°
2026-05-06 10:16 26.81010 132.13666 37037 ft 531 kts 39°
2026-05-06 10:17 26.86706 132.18927 37034 ft 530 kts 39°
2026-05-06 10:17 26.92383 132.24177 37037 ft 529 kts 39°
2026-05-06 10:18 26.98023 132.29401 37039 ft 528 kts 39°
2026-05-06 10:18 27.03690 132.34656 37039 ft 528 kts 39°
2026-05-06 10:19 27.09343 132.39906 37043 ft 528 kts 39°
2026-05-06 10:19 27.15022 132.45186 37041 ft 528 kts 39°
2026-05-06 10:20 27.20690 132.50464 37041 ft 529 kts 39°
2026-05-06 10:20 27.26356 132.55747 37042 ft 529 kts 39°
2026-05-06 10:21 27.31992 132.61009 37041 ft 530 kts 38°
2026-05-06 10:21 27.37662 132.66311 37044 ft 530 kts 39°
2026-05-06 10:22 27.43337 132.71624 37044 ft 531 kts 38°
2026-05-06 10:22 27.49027 132.76958 37045 ft 531 kts 38°
2026-05-06 10:23 27.54718 132.82302 37045 ft 532 kts 38°
2026-05-06 10:23 27.60380 132.87625 37046 ft 533 kts 38°
2026-05-06 10:24 27.66082 132.92994 37043 ft 534 kts 38°
2026-05-06 10:24 27.71787 132.98373 37041 ft 534 kts 38°
2026-05-06 10:25 27.77464 133.03733 37053 ft 535 kts 38°
2026-05-06 10:25 27.83185 133.09143 37048 ft 536 kts 39°
2026-05-06 10:26 27.88908 133.14563 37043 ft 537 kts 39°
2026-05-06 10:26 27.94635 133.20016 37037 ft 538 kts 39°
2026-05-06 10:27 28.00355 133.25486 37038 ft 539 kts 39°
2026-05-06 10:27 28.06095 133.30982 37039 ft 540 kts 39°
2026-05-06 10:28 28.11825 133.36473 37044 ft 538 kts 39°
2026-05-06 10:28 28.17505 133.41923 37042 ft 536 kts 39°
2026-05-06 10:29 28.23186 133.47381 37030 ft 534 kts 38°
2026-05-06 10:29 28.28855 133.52837 37036 ft 533 kts 39°
2026-05-06 10:30 28.34502 133.58278 37039 ft 532 kts 38°
2026-05-06 10:30 28.40140 133.63719 37044 ft 532 kts 38°
2026-05-06 10:31 28.45743 133.69134 37046 ft 532 kts 38°
2026-05-06 10:31 28.51405 133.74615 37047 ft 533 kts 38°
2026-05-06 10:32 28.57057 133.80094 37049 ft 534 kts 38°
2026-05-06 10:32 28.62721 133.85592 37046 ft 536 kts 38°
2026-05-06 10:33 28.68399 133.91116 37047 ft 537 kts 38°
2026-05-06 10:33 28.74045 133.96619 37049 ft 538 kts 38°
2026-05-06 10:34 28.79744 134.02181 37046 ft 539 kts 38°
2026-05-06 10:34 28.85446 134.07756 37044 ft 540 kts 38°
2026-05-06 10:35 28.91148 134.13338 37042 ft 540 kts 38°
2026-05-06 10:35 28.96844 134.18923 37045 ft 541 kts 38°
2026-05-06 10:36 29.02560 134.24535 37038 ft 541 kts 38°
2026-05-06 10:36 29.08238 134.30120 37047 ft 541 kts 38°
2026-05-06 10:37 29.13945 134.35741 37044 ft 542 kts 38°
2026-05-06 10:37 29.19661 134.41378 37043 ft 542 kts 38°
2026-05-06 10:38 29.25380 134.47028 37044 ft 543 kts 38°
2026-05-06 10:38 29.31113 134.52701 37047 ft 544 kts 38°
2026-05-06 10:39 29.36850 134.58386 37046 ft 544 kts 38°
2026-05-06 10:39 29.41606 134.63106 37048 ft 544 kts 38°
2026-05-06 10:40 29.48266 134.69727 37046 ft 545 kts 38°
2026-05-06 10:40 29.53986 134.75421 37050 ft 545 kts 38°
2026-05-06 10:41 29.58785 134.80205 37047 ft 544 kts 37°
2026-05-06 10:41 29.64468 134.85880 37049 ft 544 kts 37°
2026-05-06 10:42 29.70189 134.91601 37050 ft 544 kts 37°
2026-05-06 10:42 29.75902 134.97324 37054 ft 543 kts 37°
2026-05-06 10:43 29.81606 135.03045 37059 ft 544 kts 37°
2026-05-06 10:44 29.90143 135.11626 37061 ft 545 kts 37°
2026-05-06 10:44 29.95859 135.17383 37062 ft 546 kts 37°
2026-05-06 10:45 30.01589 135.23164 37062 ft 547 kts 37°
2026-05-06 10:45 30.07324 135.28959 37058 ft 547 kts 37°
2026-05-06 10:46 30.13052 135.34754 37063 ft 547 kts 37°
2026-05-06 10:46 30.18826 135.40488 37061 ft 547 kts 36°
2026-05-06 10:47 30.24627 135.46185 37063 ft 547 kts 36°
2026-05-06 10:47 30.30423 135.51896 37066 ft 546 kts 36°
2026-05-06 10:48 30.36169 135.57588 37059 ft 546 kts 36°
2026-05-06 10:48 30.41941 135.63321 37071 ft 546 kts 36°
2026-05-06 10:49 30.47706 135.69055 37070 ft 546 kts 36°
2026-05-06 10:49 30.53474 135.74800 37066 ft 546 kts 36°
2026-05-06 10:50 30.59219 135.80530 37077 ft 547 kts 36°
2026-05-06 10:50 30.64984 135.86290 37076 ft 547 kts 36°
2026-05-06 10:51 30.70754 135.92065 37081 ft 547 kts 36°
2026-05-06 10:51 30.76530 135.97855 37081 ft 548 kts 36°
2026-05-06 10:52 30.82296 136.03646 37094 ft 548 kts 36°
2026-05-06 10:52 30.88060 136.09443 37088 ft 548 kts 36°
2026-05-06 10:53 30.93798 136.15223 37091 ft 548 kts 36°
2026-05-06 10:53 30.99570 136.21048 37090 ft 548 kts 36°
2026-05-06 10:54 31.05336 136.26877 37102 ft 549 kts 36°
2026-05-06 10:54 31.11112 136.32725 37098 ft 550 kts 36°
2026-05-06 10:55 31.16894 136.38589 37098 ft 550 kts 36°
2026-05-06 10:55 31.22634 136.44421 37103 ft 550 kts 36°
2026-05-06 10:56 31.28424 136.50313 37109 ft 551 kts 36°
2026-05-06 10:56 31.34215 136.56216 37099 ft 552 kts 36°
2026-05-06 10:57 31.39997 136.62123 37099 ft 552 kts 36°
2026-05-06 10:57 31.45784 136.68042 37110 ft 552 kts 36°
2026-05-06 10:58 31.51530 136.73938 37111 ft 552 kts 36°
2026-05-06 10:58 31.57310 136.79884 37115 ft 553 kts 36°
2026-05-06 10:59 31.63100 136.85850 37120 ft 554 kts 36°
2026-05-06 10:59 31.68871 136.91806 37119 ft 554 kts 36°
2026-05-06 11:00 31.74668 136.97799 37125 ft 555 kts 36°
2026-05-06 11:00 31.80477 137.03814 37124 ft 556 kts 36°
2026-05-06 11:01 31.86289 137.09844 37123 ft 557 kts 36°
2026-05-06 11:01 31.92058 137.15840 37130 ft 557 kts 36°
2026-05-06 11:02 31.97874 137.21895 37130 ft 558 kts 36°
2026-05-06 11:02 32.03687 137.27958 37122 ft 558 kts 36°
2026-05-06 11:03 32.09508 137.34039 37117 ft 558 kts 36°
2026-05-06 11:03 32.15319 137.40121 37119 ft 559 kts 36°
2026-05-06 11:04 32.21135 137.46220 37113 ft 559 kts 36°
2026-05-06 11:04 32.26920 137.52295 37120 ft 559 kts 36°
2026-05-06 11:05 32.32741 137.58420 37120 ft 559 kts 37°
2026-05-06 11:05 32.38555 137.64550 37125 ft 560 kts 37°
2026-05-06 11:06 32.44367 137.70687 37124 ft 560 kts 37°
2026-05-06 11:06 32.50183 137.76840 37134 ft 560 kts 37°
2026-05-06 11:07 32.55957 137.82959 37129 ft 561 kts 37°
2026-05-06 11:07 32.61785 137.89147 37133 ft 561 kts 37°
2026-05-06 11:08 32.67601 137.95334 37127 ft 562 kts 37°
2026-05-06 11:08 32.73431 138.01547 37134 ft 563 kts 37°
2026-05-06 11:09 32.79252 138.07763 37134 ft 563 kts 37°
2026-05-06 11:09 32.85088 138.14007 37132 ft 564 kts 37°
2026-05-06 11:10 32.90888 138.20320 37132 ft 565 kts 39°
2026-05-06 11:10 32.96517 138.26807 37129 ft 566 kts 40°
2026-05-06 11:11 33.02154 138.33377 37133 ft 566 kts 40°
2026-05-06 11:11 33.07806 138.39918 37129 ft 565 kts 39°
2026-05-06 11:12 33.13425 138.46396 37124 ft 565 kts 39°
2026-05-06 11:12 33.19086 138.52932 37126 ft 565 kts 39°
2026-05-06 11:13 33.24737 138.59474 37125 ft 565 kts 39°
2026-05-06 11:13 33.30381 138.66024 37133 ft 565 kts 39°
2026-05-06 11:14 33.36029 138.72591 37138 ft 565 kts 39°
2026-05-06 11:14 33.41626 138.79111 37138 ft 565 kts 39°
2026-05-06 11:15 33.47266 138.85692 37124 ft 566 kts 39°
2026-05-06 11:15 33.52906 138.92288 37132 ft 566 kts 39°
2026-05-06 11:16 33.58509 138.98852 37144 ft 566 kts 39°
2026-05-06 11:16 33.64139 139.05456 37140 ft 566 kts 39°
2026-05-06 11:17 33.69776 139.12055 37143 ft 566 kts 39°
2026-05-06 11:17 33.75414 139.18665 37144 ft 566 kts 39°
2026-05-06 11:18 33.81054 139.25296 37155 ft 567 kts 39°
2026-05-06 11:18 33.86687 139.31933 37154 ft 567 kts 39°
2026-05-06 11:19 33.92322 139.38587 37150 ft 567 kts 39°
2026-05-06 11:19 33.97916 139.45200 37154 ft 566 kts 39°
2026-05-06 11:20 34.03506 139.51814 37145 ft 561 kts 39°
2026-05-06 11:20 34.08946 139.58692 37166 ft 571 kts 46°
2026-05-06 11:20 34.11481 139.62447 36591 ft 584 kts 47°
2026-05-06 11:21 34.14016 139.66317 35842 ft 588 kts 48°
2026-05-06 11:21 34.16531 139.70200 35224 ft 585 kts 49°
2026-05-06 11:21 34.19030 139.74046 34757 ft 578 kts 48°
2026-05-06 11:21 34.21486 139.77794 34277 ft 573 kts 48°
2026-05-06 11:22 34.23957 139.81538 33747 ft 568 kts 48°
2026-05-06 11:22 34.26421 139.85259 33240 ft 562 kts 48°
2026-05-06 11:22 34.28860 139.88944 32757 ft 557 kts 48°
2026-05-06 11:22 34.31269 139.92591 32288 ft 552 kts 48°
2026-05-06 11:23 34.33642 139.96193 31826 ft 547 kts 47°
2026-05-06 11:23 34.36002 139.99783 31369 ft 543 kts 47°
2026-05-06 11:23 34.38340 140.03349 30914 ft 538 kts 47°
2026-05-06 11:23 34.40658 140.06888 30459 ft 534 kts 47°
2026-05-06 11:24 34.42918 140.10436 29935 ft 532 kts 51°
2026-05-06 11:24 34.44984 140.14143 29418 ft 529 kts 54°
2026-05-06 11:24 34.46947 140.17886 28923 ft 525 kts 55°
2026-05-06 11:24 34.48866 140.21622 28446 ft 520 kts 55°
2026-05-06 11:25 34.50840 140.25188 27992 ft 509 kts 47°
2026-05-06 11:25 34.53286 140.28264 27636 ft 493 kts 34°
2026-05-06 11:25 34.55960 140.30686 27291 ft 479 kts 26°
2026-05-06 11:25 34.58822 140.32648 26870 ft 465 kts 16°
2026-05-06 11:26 34.61776 140.34159 26367 ft 459 kts 15°
2026-05-06 11:26 34.64730 140.35636 25881 ft 457 kts 15°
2026-05-06 11:26 34.67670 140.37111 25451 ft 454 kts 15°
2026-05-06 11:26 34.70572 140.38582 25068 ft 450 kts 15°
2026-05-06 11:27 34.73446 140.40052 24671 ft 446 kts 16°
2026-05-06 11:27 34.76265 140.41503 24262 ft 443 kts 16°
2026-05-06 11:27 34.79096 140.42967 23861 ft 440 kts 17°
2026-05-06 11:27 34.81916 140.44428 23414 ft 437 kts 17°
2026-05-06 11:28 34.84705 140.45875 22962 ft 433 kts 17°
2026-05-06 11:28 34.86537 140.46827 22679 ft 430 kts 17°
2026-05-06 11:28 34.89286 140.48256 22252 ft 427 kts 18°
2026-05-06 11:28 34.92000 140.49667 21832 ft 419 kts 18°
2026-05-06 11:29 34.94648 140.51048 21122 ft 409 kts 18°
2026-05-06 11:29 34.97224 140.52390 20275 ft 405 kts 19°
2026-05-06 11:29 34.99797 140.53728 19444 ft 400 kts 19°
2026-05-06 11:29 35.02347 140.55056 18690 ft 394 kts 19°
2026-05-06 11:30 35.04854 140.56362 17953 ft 394 kts 20°
2026-05-06 11:30 35.07369 140.57673 17560 ft 390 kts 20°
2026-05-06 11:30 35.09844 140.58966 17277 ft 383 kts 20°
2026-05-06 11:30 35.12273 140.60236 16925 ft 378 kts 20°
2026-05-06 11:31 35.14665 140.61487 16511 ft 375 kts 20°
2026-05-06 11:31 35.17064 140.62741 16087 ft 373 kts 20°
2026-05-06 11:31 35.19439 140.63984 15695 ft 370 kts 20°
2026-05-06 11:31 35.21800 140.65221 15322 ft 367 kts 20°
2026-05-06 11:32 35.24139 140.66447 14941 ft 364 kts 20°
2026-05-06 11:32 35.26466 140.67668 14543 ft 362 kts 20°
2026-05-06 11:32 35.28772 140.68878 14177 ft 360 kts 20°
2026-05-06 11:32 35.31063 140.70081 13786 ft 357 kts 20°
2026-05-06 11:33 35.33340 140.71278 13351 ft 355 kts 20°
2026-05-06 11:33 35.35602 140.72467 12917 ft 353 kts 20°
2026-05-06 11:33 35.37889 140.73465 12404 ft 346 kts
2026-05-06 11:33 35.40265 140.73552 11899 ft 339 kts 347°
2026-05-06 11:34 35.42522 140.72873 11559 ft 330 kts 341°
2026-05-06 11:34 35.44732 140.72151 11323 ft 327 kts 341°
2026-05-06 11:34 35.46938 140.71453 11069 ft 328 kts 342°
2026-05-06 11:34 35.49152 140.70759 10805 ft 325 kts 342°
2026-05-06 11:35 35.51278 140.70097 10740 ft 314 kts 341°
2026-05-06 11:35 35.53351 140.69453 10655 ft 302 kts 341°
2026-05-06 11:35 35.55353 140.68831 10545 ft 292 kts 341°
2026-05-06 11:35 35.57297 140.68225 10403 ft 284 kts 341°
2026-05-06 11:36 35.59200 140.67632 10186 ft 280 kts 341°
2026-05-06 11:36 35.61083 140.67042 9867 ft 279 kts 341°
2026-05-06 11:36 35.62965 140.66452 9524 ft 278 kts 341°
2026-05-06 11:36 35.64845 140.65864 9207 ft 277 kts 341°
2026-05-06 11:37 35.66681 140.65289 8915 ft 275 kts 342°
2026-05-06 11:37 35.68539 140.64708 8576 ft 275 kts 342°
2026-05-06 11:37 35.70388 140.64130 8267 ft 274 kts 342°
2026-05-06 11:37 35.72235 140.63553 7965 ft 273 kts 342°
2026-05-06 11:38 35.74070 140.62979 7678 ft 271 kts 342°
2026-05-06 11:38 35.75890 140.62409 7383 ft 271 kts 342°
2026-05-06 11:38 35.77712 140.61839 7085 ft 270 kts 343°
2026-05-06 11:38 35.79530 140.61270 6792 ft 269 kts 343°
2026-05-06 11:39 35.81336 140.60704 6461 ft 270 kts 342°
2026-05-06 11:39 35.83152 140.60100 6075 ft 267 kts 335°
2026-05-06 11:39 35.84652 140.58835 5983 ft 261 kts 309°
2026-05-06 11:39 35.85815 140.57116 5709 ft 262 kts 305°
2026-05-06 11:40 35.86959 140.55354 5450 ft 260 kts 305°
2026-05-06 11:40 35.88067 140.53649 5313 ft 251 kts 305°
2026-05-06 11:40 35.89129 140.52023 5200 ft 243 kts 305°
2026-05-06 11:40 35.90176 140.50419 5017 ft 237 kts 305°
2026-05-06 11:41 35.91185 140.48876 4984 ft 225 kts 305°
2026-05-06 11:41 35.92176 140.47360 4989 ft 231 kts 305°
2026-05-06 11:41 35.93188 140.45811 4932 ft 239 kts 305°
2026-05-06 11:41 35.94236 140.44214 4820 ft 239 kts 305°
2026-05-06 11:42 35.95272 140.42635 4677 ft 235 kts 305°
2026-05-06 11:42 35.96293 140.41069 4565 ft 231 kts 304°
2026-05-06 11:42 35.97257 140.39487 4441 ft 228 kts 302°
2026-05-06 11:42 35.98200 140.37913 4314 ft 229 kts 302°
2026-05-06 11:43 35.99158 140.36318 4220 ft 234 kts 303°
2026-05-06 11:43 36.00117 140.34720 4112 ft 234 kts 301°
2026-05-06 11:43 36.00729 140.32936 3959 ft 224 kts 271°
2026-05-06 11:44 35.99825 140.29437 3770 ft 212 kts 238°
2026-05-06 11:44 35.99081 140.27906 3647 ft 203 kts 238°
2026-05-06 11:44 35.98362 140.26431 3543 ft 198 kts 238°
2026-05-06 11:44 35.97577 140.25060 3491 ft 194 kts 221°
2026-05-06 11:45 35.96368 140.24310 3416 ft 199 kts 195°
2026-05-06 11:45 35.94972 140.24180 3288 ft 207 kts 171°
2026-05-06 11:45 35.93695 140.24943 3185 ft 203 kts 150°
2026-05-06 11:45 35.92532 140.25851 3064 ft 192 kts 153°
2026-05-06 11:46 35.91418 140.26673 2960 ft 183 kts 153°
2026-05-06 11:46 35.90334 140.27464 2900 ft 178 kts 153°
2026-05-06 11:46 35.89296 140.28222 2806 ft 169 kts 153°
2026-05-06 11:46 35.88306 140.28941 2587 ft 161 kts 154°
2026-05-06 11:47 35.87357 140.29632 2400 ft 155 kts 154°
2026-05-06 11:47 35.86416 140.30314 2204 ft 158 kts 154°
2026-05-06 11:47 35.85504 140.30979 1985 ft 146 kts 154°
2026-05-06 11:47 35.84654 140.31596 1803 ft 141 kts 154°
2026-05-06 11:48 35.83815 140.32204 1615 ft 139 kts 154°
2026-05-06 11:48 35.82990 140.32802 1430 ft 139 kts 154°
2026-05-06 11:48 35.82156 140.33409 1235 ft 138 kts 154°
2026-05-06 11:48 35.81340 140.34001 1049 ft 134 kts 152°
2026-05-06 11:49 35.80522 140.34595 896 ft 139 kts 152°
2026-05-06 11:49 35.79678 140.35207 679 ft 145 kts 151°
2026-05-06 11:49 35.78815 140.35837 474 ft 141 kts 150°
2026-05-06 11:49 35.78052 140.36387 358 ft 140 kts 151°
2026-05-06 11:50 35.77162 140.37024 164 ft 147 kts 149°
2026-05-06 11:50 35.76350 140.37616 149 ft 121 kts 149°
2026-05-06 11:50 35.75759 140.38042 151 ft 74 kts 149°
2026-05-06 11:50 35.75501 140.38337 150 ft 29 kts 120°
2026-05-06 11:51 35.75471 140.38490 149 ft 14 kts 65°
2026-05-06 11:51 35.75531 140.38573 149 ft 12 kts 13°
2026-05-06 11:51 35.75606 140.38538 149 ft 12 kts 329°
2026-05-06 11:51 35.75679 140.38485 149 ft 12 kts 329°
2026-05-06 11:52 35.75754 140.38473 149 ft 7 kts 34°
2026-05-06 11:52 35.75791 140.38504 149 ft 7 kts
2026-05-06 11:52 35.75839 140.38485 149 ft 8 kts 331°
2026-05-06 11:52 35.75887 140.38469 149 ft 7 kts 17°
2026-05-06 11:53 35.75921 140.38520 149 ft 7 kts 59°
2026-05-06 11:53 35.75931 140.38542 149 ft 1 kts 59°
2026-05-06 11:53 35.75935 140.38549 149 ft 0 kts 59°